Regional Weather Roundup
Issued by NWS

Home | Current Version | Previous Version | Text Only | Print | Product List | Glossary Off
Versions: 1 2 3 4 5 6 7 8 9 10 11 12 13 14 15 16 17 18 19 20 21 22 23 24 25 26 27 28 29 30 31 32 33 34 35 36 37 38 39 40 41 42 43 44 45 46 47 48 49 50

000
ASUS43 KLOT 292213
RWRIL

ILLINOIS REGIONAL WEATHER ROUNDUP
NATIONAL WEATHER SERVICE CHICAGO/ROMEOVILLE IL
500 PM CDT WED JUL 29 2015

NOTE: "FAIR" INDICATES FEW OR NO CLOUDS BELOW 12,000 FEET WITH NO
SIGNIFICANT WEATHER AND/OR OBSTRUCTIONS TO VISIBILITY.

* THESE STATIONS ARE NOT UNDER NWS QUALITY CONTROL. THEY ALSO MAY NOT
  REPORT WEATHER SUCH AS PRECIPITATION OR FOG.

ILZ001-002-007-009-015-016-024-292300-
NORTHWEST ILLINOIS

CITY           SKY/WX    TMP DP  RH WIND       PRES   REMARKS
MOLINE         SUNNY     84  56  38 W15       30.04F HX  83
STERLING*      SUNNY     82  61  47 W15G21    30.01F HX  83
SAVANNA*       SUNNY     84  53  34 W13G18    30.02S HX  82
$$

ILZ003-004-008-010-011-017-018-292300-
NORTH CENTRAL ILLINOIS

CITY           SKY/WX    TMP DP  RH WIND       PRES   REMARKS
ROCKFORD       MOSUNNY   84  53  34 W14G23    30.00F HX  82
FREEPORT*      SUNNY     81  55  40 W15G21    30.02F HX  81
ROCHELLE*      SUNNY     82  56  41 W15G21    30.02S HX  81
DE KALB*       MOSUNNY   82  57  42 W18       30.01S HX  82
PERU*          SUNNY     82  56  41 W12G17    30.03S HX  81
$$

ILZ005-006-012>014-019>023-292300-
NORTHEAST ILLINOIS

CITY           SKY/WX    TMP DP  RH WIND       PRES   REMARKS
CHICAGO-OHARE  MOSUNNY   85  52  32 W15       29.96S HX  83
CHICAGO-MIDWAY MOSUNNY   87  50  27 W9G23     29.96S HX  84
AURORA         SUNNY     83  55  38 W14       29.99F HX  82
LANSING*       MOSUNNY   86  45  23 W16       29.97R HX  83
JOLIET*        SUNNY     85  58  40 W12G17    30.00R HX  84
WAUKEGAN       SUNNY     83  52  34 W12G22    29.94F HX  82
DUPAGE AIRPORT SUNNY     84  53  34 W16G24    29.98F HX  82
KANKAKEE*      SUNNY     84  61  46 W13G20    30.00S HX  84
WHEELING       SUNNY     86  49  27 W10G21    29.97S HX  83
MORRIS*        SUNNY     82  60  47 NW10      29.99S HX  82
ROMEOVILLE*    SUNNY     83  53  35 W14       29.99S HX  82
NORTHERLY ISL    N/A     86  50  28 W10         N/A  HX  84
$$

LMZ740>746-292300-
SOUTHERN LAKE MICHIGAN

STATION/POSITION SKY/WX   TEMP    WIND        PRES    VSBY  WAVE
                          AIR SEA DIR/SP/G                  HT/PER
                          (F)     (DEG/KT/KT) (MB)    (MI)  (FT/S)
HARRISON CRIB              83     280/ 18/ 22   N/A
BURNHAM HARBOR             85     310/  8/ 15   N/A
CALUMET HARBOR             78                   N/A
BURNS HARBOR               82      40/  4/  4 1014.9F
MICHIGAN CITY              80        CALM       N/A
MICHIGAN CITY 6N           80 78  290/  2/  2   N/A           1
ST. JOSEPH                 77 76  330/  6/  8   N/A           1/ 3
$$

ILZ025>027-034>036-040-047-049-050-058-095>099-292300-
WEST-CENTRAL ILLINOIS

CITY           SKY/WX    TMP DP  RH WIND       PRES   REMARKS
QUINCY         SUNNY     83  57  41 NW12      30.09S HX  82
GALESBURG*     SUNNY     82  59  45 W12       30.06F HX  82
MACOMB*        SUNNY     82  58  43 NW9       30.10S HX  82
JACKSONVILLE*  MOSUNNY   85  64  48 NW10      30.06S HX  86
PITTSFIELD*    MOSUNNY   85  61  44 NW9       30.09S HX  85
$$

ILZ028>032-037-038-041>044-048-051>054-059>061-292300-
CENTRAL ILLINOIS

CITY           SKY/WX    TMP DP  RH WIND       PRES   REMARKS
PONTIAC        SUNNY     82  62  50 NW10      30.03S HX  83
BLOOMINGTON    MOSUNNY   85  55  35 NW16      30.05S HX  83
DECATUR        MOSUNNY   87  66  49 N14       30.02F HX  89
PEORIA         SUNNY     86  57  37 VRB5      30.05S HX  85
LACON*         SUNNY     82  59  46 NW10G16   30.03S HX  82
LINCOLN*       SUNNY     86  57  36 NW7       30.03S HX  85
SPRINGFIELD    MOSUNNY   88  65  46 N10       30.04S HX  90
TAYLORVILLE    SUNNY     82  68  61 N9        30.03F HX  85
$$

ILZ033-039-045-046-055>057-062-063-292300-
EAST-CENTRAL ILLINOIS

CITY           SKY/WX    TMP DP  RH WIND       PRES   REMARKS
CHAMPAIGN      MOSUNNY   83  69  62 NW7       30.02S HX  86
DANVILLE*      MOSUNNY   83  67  58 NW8       29.98R HX  86
RANTOUL*       MOSUNNY   85  69  59 NW14      30.01S HX  88
MATTOON        PTSUNNY   85  70  60 N14       29.99F HX  89
PARIS*         CLOUDY    85  70  60 NW9       29.99S HX  89
$$

ILZ079-100>102-292300-
SOUTHWEST ILLINOIS

CITY           SKY/WX    TMP DP  RH WIND       PRES   REMARKS
ALTON          MOSUNNY   86  73  66 NW9       30.04  HX  93
BELLEVILLE     SUNNY     88  76  67 VRB7      30.01S HX  99
CAHOKIA*       SUNNY     91  71  51 N15       30.02F HX  97
SPARTA*        SUNNY     88  74  63 N9        30.01F HX  97
$$

ILZ064>066-069>071-074>076-080>082-084>086-088>090-092>094-292300-
SOUTH-CENTRAL ILLINOIS

CITY           SKY/WX    TMP DP  RH WIND       PRES   REMARKS
CARBONDALE     MOSUNNY   87  74  64 N14       29.98F HX  95
CAIRO*         PTSUNNY   86  74  67 N17       29.96R HX  93
EFFINGHAM*     PTSUNNY   87  73  63 NW12G17   30.01S HX  93
MARION         PTSUNNY   90  77  66 N15       29.98S HX 102
MT. VERNON     MOSUNNY   88  73  62 N5        29.99S HX  96
CENTRALIA*     MOSUNNY   88  73  60 NW10G18   30.00S HX  95
SALEM*         MOSUNNY   89  75  63 N12G17    30.00F HX  99
METROPOLIS*    TSTM      80  75  85 W9        29.99R HX  85
$$

ILZ067-068-072-073-078-083-087-091-292300-
SOUTHEAST ILLINOIS

CITY           SKY/WX    TMP DP  RH WIND       PRES   REMARKS
LAWRENCEVILLE  CLOUDY    80  77  90 N8        29.96F HX  87
FLORA*         CLOUDY    88  75  66 N10       29.98S HX  98
FAIRFIELD*     PTSUNNY   87  78  73 NW9       29.95F HX 100
HARRISBURG*    PTSUNNY   91  77  64 NW9       29.97F HX 104
ROBINSON*      CLOUDY    84  78  80 N7        29.97F HX  95
CARMI*         PTSUNNY   81  73  76 MISG      29.95F HX  86
$$

ABBREVIATIONS USED IN REMARKS
   TC - TEMPERATURE IN CELSIUS
  WCI - WIND CHILL INDEX
   HX - HEAT INDEX
  VSB - VISIBILITY
$$




USA.gov is the U.S. government's official web portal to all federal, state and local government web resources and services.